www.pogodaiklimat.ru
ПОГОДА в Черкесске

Архив погоды в Черкесске (Карачаево-Черкессия, Россия)

Время
(UTC), дата
06 11.04
09 11.04
12 11.04
15 11.04
18 11.04
21 11.04
00 12.04
03 12.04
06 12.04
09 12.04
12 12.04
15 12.04
18 12.04
21 12.04
00 13.04
03 13.04
06 13.04
09 13.04
12 13.04
15 13.04
18 13.04
21 13.04
00 14.04
03 14.04
06 14.04
09 14.04
12 14.04
15 14.04
18 14.04
21 14.04
00 15.04
03 15.04
06 15.04
09 15.04
12 15.04
15 15.04
18 15.04
21 15.04
00 16.04
03 16.04
06 16.04
09 16.04
12 16.04
15 16.04
18 16.04
21 16.04
00 17.04
03 17.04
06 17.04
09 17.04
12 17.04
18 17.04
21 17.04
00 18.04
Ветер
(напр.,м/с)
Видим. Явления Облачность Т
(С)
Тd
(С)
f
(%)
Тe
(С)
Тes
(С)
Комфортность P
(гПа)
Po
(гПа)
Тmin
(С)
Tmax
(С)
R
(мм)
R24
(мм)
S
(см)
ЮВ 2 20 км 10/10 600 м
[Sc]
+11.2 +9.3 88 +10 +10 тепло 1014.7 953.3
В 4 {11} 20 км 10/3 600 м
[Sc diur, vesp Ac trans Ci fib]
+16.8 +9.9 64 +16 +20 тепло 1018.7 954.1
В 7-15 {12} 20 км 10/8 600 м
[Sc Ac trans Ci fib]
+17.4 +8.6 56 +16 +17 тепло 1019.6 955.0
В 5 {14} 20 км 9/1 600 м
[Sc Ac trans Ci fib]
+16.2 +8.9 62 +15 +15 тепло 1016.5 956.0 +17.8
В 4 4000 м 4/0
[Ci fib]
+14.0 +8.2 68 +13 +13 тепло 1018.3 957.3
В 3 4000 м ясно +12.0 +6.5 69 +11 +11 тепло 1017.4 956.0
ЮВ 1 4000 м ясно +9.9 +4.9 71 +10 +10 тепло 1017.9 956.0
ЮЗ 1 50 км 3/0
[Ci fib]
+5.8 +4.0 88 +5 +5 по сезону 1018.9 956.0 +5.2
СЗ 1 20 км 1/0
[Ci fib]
+16.1 +8.6 61 +17 +25 тепло 1017.9 957.3
С 1 20 км 1/0
[Ci fib]
+20.1 +8.4 47 +22 +38 комфорт 1014.3 954.7
СВ 2 20 км 4/1 600 м
[Cu med, cong Ci fib]
+23.8 +6.1 32 +24 +29 комфорт 1012.1 953.3
В 3 20 км 4/0
[Ci fib]
+22.3 +4.8 32 +23 +23 комфорт 1012.4 953.3 +24.0
ЮВ 1 4000 м ясно +17.0 +6.5 50 +18 +18 тепло 1013.5 953.3
Ю 1 4000 м 6/0
[Ci fib]
+13.8 +9.2 74 +14 +14 тепло 1014.1 953.3
З 3 4000 м 8/0
[Ci fib]
+14.0 +9.6 75 +13 +13 тепло 1014.1 953.3
СВ 2 10 км 10/8 600 м
[Sc Ac trans Ci fib]
+12.5 +9.3 81 +12 +12 тепло 1014.4 953.3 +10.7
СЗ 3 10 км 10/4 600 м
[Sc Ac trans Ci fib]
+16.2 +10.5 69 +16 +16 тепло 1013.6 953.3
С 4 20 км 10/4 600 м
[Sc diur, vesp Ac trans Cs]
+19.4 +9.8 54 +20 +20 тепло 1011.5 952.0
С 5 10 км 6/3 600 м
[Cu Sc Ci fib]
+20.1 +9.6 51 +21 +23 комфорт 1010.0 950.7
СЗ 2 {10} 20 км 10/8 600 м
[Cb cap Cs]
+14.8 +9.2 69 +15 +15 тепло 1012.5 952.0 +20.4
Ю 3 {10} 4000 м слаб. ливневой дождь 10/10 600 м
[Cb cap]
+11.7 +10.9 95 +10 +10 по сезону 1014.5 953.3
З 3 4000 м в посл. час ливневой дождь 10/10 600 м
[Sc]
+12.3 +10.7 90 +11 +11 тепло 1013.0 952.0
С 3 4000 м слаб. ливневой дождь 10/10 600 м
[Cb cap]
+11.6 +9.0 84 +10 +10 тепло 1013.2 952.0
ЮЗ 1 10 км в посл. час ливневой дождь 10/10 600 м
[Sc]
+10.2 +9.4 95 +10 +10 тепло 1013.5 952.0 +10.1 12
СЗ 2 20 км {ливн. дождь} 8/6 600 м
[Sc diur, vesp Ac trans Ci fib]
+12.6 +8.3 75 +12 +14 тепло 1014.4 953.3
З 2 20 км 9/6 600 м
[Cu Sc Ac trans Ci]
+16.8 +7.7 55 +17 +19 тепло 1012.1 952.0
СЗ 4 20 км 10/8 600 м
[Cu med, cong Ci]
+17.3 +6.5 49 +17 +17 тепло 1012.0 952.0
СЗ 4 20 км 8/5 600 м
[Cu Sc Ci fib]
+15.9 +6.6 54 +15 +15 тепло 1012.3 952.0 +18.2
З 2 4000 м 10/3 600 м
[Sc Ci]
+13.0 +6.9 67 +12 +12 тепло 1019.1 953.6
ЮЗ 1 4000 м ясно +10.9 +7.0 77 +11 +11 тепло 1014.8 953.3
ЮЗ 2 4000 м ясно +10.4 +6.4 76 +9 +9 тепло 1014.9 953.3
З 3 50 км ясно +10.9 +5.6 70 +9 +9 тепло 1014.8 953.3 +8.7
З 4 50 км 3/0
[Ac trans Ci fib]
+16.1 +4.8 47 +15 +20 тепло 1013.7 953.3
З 4 50 км 8/1 600 м
[Sc Ac lent Ci]
+19.7 +4.2 36 +20 +23 тепло 1012.9 953.3
СЗ 3 50 км 9/1 600 м
[Sc Ac trans Cs]
+21.4 +4.5 33 +22 +22 комфорт 1011.2 952.0
С 4 50 км 8/1 600 м
[Sc Ac lent Cs]
+19.2 +4.9 39 +20 +20 тепло 1011.6 952.0 +21.5
СЗ 2 4000 м 8/0
[Ac trans Ci fib]
+15.0 +4.9 51 +15 +15 тепло 1013.9 953.3
Ю 2 4000 м ясно +13.3 +4.4 55 +13 +13 тепло 1012.9 952.0
ЮЗ 3 4000 м ясно +11.8 +4.8 62 +10 +10 тепло 1017.1 951.4
Ю 4 50 км 10/0
[Ci fib]
+11.7 +4.0 59 +10 +10 тепло 1011.9 950.7 +11.4
Ю 3 50 км 8/0
[Ac trans Ci fib]
+18.9 +5.7 42 +19 +22 тепло 1010.3 950.7
СВ 2 50 км 9/0
[Ac trans Ci fib]
+25.3 +3.8 25 +24 +26 комфорт 1007.5 949.3
СВ 3 20 км 10/0
[Ac trans Ci fib]
+27.2 +4.9 24 +26 +26 жарко 1004.4 946.7
ЮВ 1 50 км 10/4 1000 м
[Sc Ac trans Ci fib]
+24.4 +5.1 29 +24 +24 комфорт 1009.4 946.9 +27.3
З 1 4000 м 5/0
[Ci fib]
+16.2 +9.1 63 +17 +17 тепло 1008.0 948.0
Ю 2 4000 м 8/0
[Ci fib]
+16.5 +6.0 50 +17 +17 тепло 1007.9 948.0
штиль 0 4000 м 3/0
[Ci fib]
+10.7 +5.2 69 +10 +10 тепло 1009.2 948.0
ЮЗ 1 50 км 10/0
[Ci fib]
+10.4 +3.0 60 +10 +10 тепло 1007.9 946.7 +8.3
Ю 2 50 км 9/0
[Ci fib]
+21.8 +3.9 31 +22 +23 комфорт 1005.5 946.7
ЮВ 1 50 км 4/0
[Ac trans Ci fib]
+27.9 +0.6 17 +26 +37 жарко 1002.8 945.3
В 2 50 км 8/0
[Ci fib]
+29.4 +0.1 15 +27 +30 жарко 1001.2 944.0
Ю 1 4000 м 6 баллов +21.2 +6.7 39 +22 +22 комфорт 1002.7 944.0
Ю 2 4000 м 10 баллов +17.6 +6.8 49 +18 +18 тепло 1002.1 942.7
ЮЗ 2 4000 м 10 баллов +17.7 +1.2 33 +18 +18 тепло 1000.6 941.3
Местоположение метеостанции Черкесск (Карачаево-Черкессия, Россия): широта 44.22 долгота 42.07 высота над уровнем моря 525 м.
В архиве по умолчанию представлена погода в Черкесске за последнюю неделю. Архивные данные за месяц целиком и за предыдущие месяцы, начиная с января 2011 года, Вы можете получить, выбрав интересующий диапазон дат из раскрывающегося списка и нажав кнопку "Найти!".
*Определитесь, кто Вы:
Внимание! Время в таблицах - всемирное. Для получения местного времени необходимо прибавить поправку, которая равна 3 ч.
Некоторые строки с данными для отдельных станций могут быть выделены курсивом. Это означает, что фактические данные отсутствуют по различным причинам, а приведенные значения являются расчетными модельными данными для данного пункта наблюдений.
Смотрите также архив погоды в соседних городах и на ближайших метеорологических станциях:
Партнеры нашего сайта:      
Пояснения к столбцам:
  • Ветер - указаны скорость ветра в м/с - средняя за 10 мин, порывы в срок и между сроками (в фигурных скобках) и направление, откуда дует ветер: С - северный,
  • СВ - северо-восточный, В - восточный, ЮВ - юго-восточный, Ю - южный, ЮЗ - юго-западный, З - западный, СЗ - северо-западный.
  • Видимость - горизонтальная дальность видимости в метрах или километрах. При видимости от 1 до 10 км при отсутствии осадков обычно наблюдается дымка, при ухудшении видимости до 1 км и менее - туман. В сухую погоду видимость может ухудшаться дымом, пылью или мглою.
  • Явления - указаны атмосферные явления, наблюдавшиеся в срок или в последний час перед сроком; фигурными скобками обозначены явления, наблюдавшиеся между сроками (за 1-3 часа до срока); квадратными скобками обозначены град или гололедные отложения с указанием их диаметра в мм.
  • Облачность - указаны через наклонную черту общая и нижняя облачность в баллах и высота нижней границы облаков в метрах; квадратными скобками обозначены формы облаков: Ci - перистые, Cs - перисто-слоистые, Cc - перисто-кучевые, Ac - высококучевые, As - высокослоистые, Sc - слоисто-кучевые, Ns - слоисто-дождевые, Cu - кучевые, Cb - кучево-дождевые. Подробнее классификацию облаков см. в Атласе облаков (PDF).
  • T - Температура воздуха - температура, измеренная на высоте 2 м над землей.
  • Td - Температура точки росы - температура, при понижении до которой содержащийся в воздухе водяной пар достигнет насыщения.
  • f - Относительная влажность воздуха - влажноcть воздуха, измеренная на высоте 2 м над землей.
  • Te - Эффективная температура - температура, которую ощущает одетый по сезону человек в тени. Характеристика душности погоды. При расчете учитывается влияние влажности воздуха и скорости ветра на теплоощущения человека.
  • Tes - Эффективная температура на солнце - температура, которую ощущает человек, с поправкой на солнечный нагрев. Характеристика знойности погоды. Зависит от высоты солнца над горизонтом, облачности и скорости ветра. Ночью, в пасмурную погоду, а также при ветре 12 м/с и более поправка равна нулю.
  • P - Атмосферное давление - приведенное к уровню моря атмосферное давление.
  • Po - Атмосферное давление - измеренное на уровне метеостанции атмосферное давление.
  • Tmin - Минимальная температура - минимум температуры воздуха на высоте 2 м над землей.
  • Tmax - Максимальная температура - максимум температуры воздуха на высоте 2 м над землей.
  • R - Количество осадков - Количество выпавших осадков за период времени, мм. При наведении курсора мыши на число - период времени, за который выпало указанное количество осадков.
  • R24 - Количество осадков - Количество выпавших осадков за 24 часа, мм.
  • S - Снежный покров - Высота снежного покрова, см. При наведении курсора мыши на число - состояние снежного покрова и степень покрытия местности в баллах.